Wind_Speed
4 4 3 5 6 6 8 7 7 6 7 7 5 5 3 2 3 5 5 5 3 3 4 7 6 5 6 8 7 5 3 5 6 4 4 5 6 4 3 5 8 9 5 6 11 7 5 5 6 7 7 9 10 11 12 13 14 15 15 16 16 16 16 17 17 18 18 14 13 12 13 14 15 16 16 16 18 17 17 17 16 16 16 17 18 18
4 5 5 6 8 8 7 7 7 6 6 5 4 3 1 2 4 6 4 4 1 3 4 6 5 4 6 6 4 2 4 5 7 7 7 7 6 4 5 7 9 7 3 9 8 7 7 7 6 5 6 8 8 8 10 12 14 14 13 14 15 15 16 16 16 18 15 11 9 9 12 14 15 17 18 19 19 17 15 16 17 18 18 18 18 18
3 4 7 7 7 6 5 5 7 6 5 4 3 3 1 3 3 6 4 4 3 2 4 3 5 2 4 4 4 3 1 3 2 2 3 5 6 5 5 7 6 2 6 6 3 6 8 8 7 7 6 6 5 5 7 10 11 11 11 12 12 12 13 14 15 15 12 11 12 12 13 13 13 16 18 18 18 15 14 15 17 18 18 18 18 19
3 5 7 6 7 8 5 4 8 6 4 4 4 4 2 3 1 3 4 4 3 1 2 3 6 3 5 4 4 5 3 3 4 2 2 1 3 3 2 2 3 4 5 3 2 5 7 8 7 7 8 6 5 5 5 8 10 9 10 11 10 9 10 12 14 14 15 16 16 14 12 11 11 14 16 17 17 15 15 16 17 18 17 17 18 19
5 5 5 8 7 8 6 4 7 6 1 0 3 5 3 4 3 4 4 6 4 2 2 6 5 5 6 5 5 7 5 5 6 6 5 3 2 3 3 4 4 4 4 3 3 4 6 7 6 6 6 6 5 5 4 5 8 9 9 10 10 10 10 12 14 16 19 19 16 11 8 8 10 12 14 15 17 17 16 16 18 19 18 18 17 18
5 4 6 9 5 6 7 4 5 7 3 2 3 6 7 6 5 4 4 5 4 3 2 5 6 3 6 7 7 6 7 7 7 8 7 6 5 3 2 3 4 5 5 4 5 5 5 6 5 4 4 4 4 4 3 3 5 7 9 10 10 11 11 13 16 18 21 21 15 11 9 10 11 11 13 16 17 17 17 17 19 19 19 18 17 17
3 4 6 8 6 6 6 4 4 6 6 1 5 8 8 6 4 4 2 2 2 1 1 4 6 2 4 7 7 6 6 7 7 9 10 8 7 4 1 4 4 5 5 5 6 6 6 6 6 4 3 3 3 2 2 2 4 7 10 10 11 12 13 15 18 19 21 20 15 15 17 19 18 17 19 21 18 15 15 17 18 18 19 18 18 19
3 5 5 5 5 5 5 3 5 6 8 3 6 8 9 7 6 5 3 3 2 3 2 4 5 5 1 3 6 6 4 8 9 10 10 9 9 6 1 3 5 5 5 5 6 6 6 6 6 4 2 2 2 2 2 1 3 8 11 11 11 12 15 19 21 22 22 19 18 21 24 24 24 23 23 21 15 13 14 15 16 19 20 21 20 19
4 7 7 7 5 3 4 5 8 9 5 5 5 7 7 6 6 4 5 3 1 1 2 6 3 6 1 4 5 5 5 8 9 9 10 10 9 7 4 4 5 5 6 6 6 6 6 6 6 2 1 2 1 1 1 0 2 6 10 12 12 12 15 20 23 25 24 21 22 25 27 28 27 26 24 18 12 13 14 14 17 21 22 21 20 19
3 7 9 9 6 5 6 5 9 11 5 5 5 6 4 5 4 3 5 3 3 3 3 6 3 5 2 4 4 4 4 5 6 6 7 7 7 7 7 6 6 5 5 6 6 6 6 6 5 2 1 1 2 2 2 2 2 6 10 14 16 15 17 21 24 25 25 25 25 26 29 31 29 25 22 16 12 13 13 13 18 21 19 18 20 20
1 2 5 6 6 6 6 6 9 12 7 4 6 6 6 5 5 4 3 3 4 1 5 6 1 5 1 3 2 2 2 2 3 3 4 5 6 7 7 7 7 6 6 6 5 6 7 9 9 7 5 5 5 4 4 4 4 6 10 14 18 20 24 26 26 25 24 26 27 28 29 30 28 23 19 15 13 13 12 15 18 17 15 15 18 20
4 2 2 3 4 5 5 4 3 5 4 5 5 5 5 3 4 4 4 4 4 2 6 5 1 5 3 2 1 2 3 3 3 3 3 4 5 6 6 7 7 7 7 7 7 8 9 11 13 13 11 10 10 8 8 5 6 7 9 14 19 23 27 28 28 27 26 27 29 31 30 29 25 21 19 17 15 14 13 16 16 13 12 13 16 19
3 2 4 4 2 5 6 3 2 3 3 5 4 6 5 1 2 1 2 1 2 3 3 4 2 3 2 1 1 3 4 5 4 4 4 5 5 6 7 7 7 7 7 8 7 8 8 8 10 12 12 12 12 11 11 8 5 8 10 14 19 23 26 27 27 28 28 29 30 32 32 28 24 22 20 17 16 15 13 14 15 13 12 13 16 19
2 4 4 1 2 3 7 5 2 2 4 5 5 6 5 3 3 2 2 0 2 3 2 5 3 1 0 1 1 2 4 4 5 6 6 6 6 6 7 7 7 6 7 6 6 6 6 7 8 10 12 12 11 11 13 12 6 5 9 13 17 22 23 23 25 27 28 30 30 30 31 27 23 22 21 18 17 15 13 14 16 15 13 14 17 19
4 3 4 4 3 4 8 7 7 7 6 6 5 6 5 4 5 4 3 3 3 1 2 5 2 1 2 1 2 2 3 3 5 5 5 6 6 5 7 8 7 8 8 6 6 6 7 8 9 10 11 11 11 12 14 14 10 6 7 10 16 21 23 23 23 21 22 25 23 22 24 23 19 19 21 18 16 14 13 14 16 15 14 14 17 18
4 4 7 3 1 6 9 6 6 7 4 2 3 6 3 5 5 3 3 4 5 3 2 3 1 1 2 1 2 2 3 3 4 5 5 5 5 6 7 7 7 8 8 7 7 7 8 10 11 10 12 12 12 13 14 13 12 10 9 10 12 15 19 21 22 20 20 22 22 20 19 18 17 18 19 17 15 13 13 15 16 15 14 14 15 15
3 3 6 1 2 6 8 6 5 6 4 2 3 4 4 4 7 6 2 1 4 4 1 1 1 0 0 1 2 3 2 2 4 4 4 4 6 7 7 7 7 7 8 8 8 8 10 13 14 14 15 16 15 14 14 13 13 12 12 13 14 16 16 17 18 21 23 24 23 23 21 17 15 17 19 19 16 14 13 14 15 14 14 14 14 15
4 2 5 1 4 5 4 7 3 2 5 5 4 6 3 3 5 5 3 3 4 3 0 2 1 3 2 1 3 6 6 5 5 4 3 4 6 7 7 7 8 8 8 8 9 9 11 13 15 16 17 18 19 18 17 16 15 16 16 15 15 15 16 16 16 18 20 21 20 21 21 19 17 17 19 20 17 14 12 13 13 14 14 14 14 16
3 0 6 2 2 2 2 7 4 4 2 4 5 5 4 4 2 2 3 2 2 3 0 2 2 2 3 2 4 8 8 7 6 4 4 4 6 7 7 8 8 8 8 8 8 7 8 11 14 16 19 21 23 22 21 19 18 19 19 20 19 17 16 15 14 15 15 15 15 16 17 18 19 18 20 20 16 12 10 10 11 13 13 12 13 16
2 3 3 3 1 1 3 3 3 0 4 5 4 4 2 3 4 3 3 3 4 4 2 1 1 3 3 3 5 8 8 7 6 5 4 5 7 8 7 7 7 7 6 6 7 7 8 12 15 18 20 21 22 22 22 21 21 21 22 22 21 19 18 17 15 14 14 13 12 11 13 14 16 16 18 18 14 10 9 8 10 12 13 12 13 15
2 3 2 4 4 1 1 1 5 6 3 4 3 2 1 2 3 3 2 2 4 5 3 3 1 5 4 3 4 7 7 6 5 5 4 6 8 8 7 7 7 6 6 7 7 7 9 14 17 18 19 19 22 22 22 21 21 22 24 22 21 19 17 17 17 16 14 12 12 10 8 10 11 12 14 14 11 9 8 8 9 12 12 12 13 14
1 2 3 2 4 2 2 4 4 7 6 5 4 5 5 4 4 4 2 1 2 4 4 5 3 5 4 1 3 6 6 5 5 6 6 6 8 7 7 7 7 7 7 8 8 8 10 14 17 18 18 19 21 22 21 21 21 22 23 22 21 20 18 17 18 18 15 11 10 8 6 6 7 8 10 9 8 8 8 9 9 11 13 13 13 15
3 3 3 0 1 1 4 4 0 4 6 6 4 4 5 4 5 6 4 3 2 3 2 4 2 4 3 1 3 6 6 5 5 6 6 6 6 7 7 7 7 7 7 8 8 8 10 13 15 16 17 18 20 21 21 21 21 21 23 23 22 21 20 19 17 16 15 11 9 7 6 5 4 6 6 6 6 7 8 9 10 11 13 15 15 16
2 3 3 0 3 3 4 4 4 3 6 7 3 2 3 3 3 5 5 4 4 3 2 4 1 3 3 1 3 6 6 6 6 5 6 6 5 6 7 7 7 7 8 8 7 8 10 14 15 15 16 18 19 20 21 22 22 22 23 23 23 22 23 21 18 15 14 13 12 9 8 6 5 5 5 5 7 9 10 12 13 13 14 16 16 18
2 2 3 3 2 4 4 5 5 5 4 3 1 3 2 4 6 5 3 4 3 4 4 5 2 4 2 3 6 7 8 8 6 5 5 6 5 6 6 6 7 7 8 8 8 8 10 12 13 14 15 16 17 18 20 21 23 23 23 23 24 24 24 23 20 15 12 13 13 10 7 7 6 6 7 8 8 9 11 12 15 16 16 17 18 19
3 2 3 5 4 3 1 1 1 1 2 2 2 3 3 4 7 5 3 4 3 4 4 5 4 3 3 7 9 8 9 8 7 6 6 6 6 6 5 6 6 6 7 9 9 8 9 10 12 14 16 17 17 18 18 20 22 23 23 24 24 24 24 24 22 18 12 11 12 9 6 6 6 6 9 10 9 10 10 11 14 16 16 18 19 19
5 3 3 5 5 5 6 4 3 2 3 2 2 4 5 2 4 6 5 3 4 5 2 3 6 8 7 9 9 8 8 8 6 6 6 6 6 6 5 5 5 6 6 7 8 8 8 9 11 14 16 17 18 18 19 20 22 23 24 24 24 24 23 22 22 21 15 10 10 9 7 5 5 6 8 9 9 9 10 12 15 17 18 19 19 19
6 3 2 5 5 1 3 2 1 4 5 3 3 3 4 3 4 7 5 4 6 8 2 5 8 13 10 9 9 8 8 8 7 6 6 6 6 5 5 6 6 7 7 7 8 9 9 9 11 14 16 17 19 21 22 22 23 24 24 24 24 24 23 22 21 20 16 12 11 11 8 5 4 6 8 8 8 9 10 14 16 16 17 18 19 20
6 2 0 4 5 6 5 3 5 8 6 6 6 5 5 5 4 5 4 4 4 5 5 7 10 10 8 8 9 8 7 7 8 7 6 6 6 5 7 7 7 7 7 8 9 9 9 9 10 13 15 18 20 22 23 23 24 25 25 25 25 24 23 23 21 19 17 14 13 12 9 6 4 6 8 9 10 11 12 14 15 15 16 16 17 19
5 2 0 4 6 7 8 6 5 8 7 7 9 7 7 8 7 5 3 3 3 3 7 13 11 5 3 5 7 8 7 7 7 7 7 7 6 6 7 7 7 7 8 8 8 8 8 9 11 14 17 19 20 21 22 23 23 24 25 25 25 25 24 23 22 21 19 17 15 12 9 6 5 7 9 11 12 12 14 15 16 16 15 15 16 17
4 2 1 3 6 6 7 7 7 7 9 8 8 8 7 9 8 6 4 4 4 5 8 13 11 4 2 4 7 8 7 7 7 7 7 7 6 6 7 7 7 7 8 8 8 8 8 9 12 15 17 18 20 20 21 22 22 23 24 25 25 25 25 24 23 23 22 20 18 14 10 6 5 8 10 11 12 13 13 14 15 16 16 15 16 16
4 4 1 4 5 3 5 6 6 6 10 10 7 8 8 7 6 4 3 2 3 8 12 10 7 4 3 5 8 8 7 8 7 6 6 7 7 7 7 7 6 7 7 7 7 8 8 9 11 13 15 17 20 20 20 20 21 22 23 24 25 25 25 26 26 25 24 23 20 17 13 7 4 6 9 10 12 13 13 12 14 16 16 14 13 14
3 5 2 3 5 1 4 4 4 4 7 4 4 5 5 4 5 4 4 5 2 7 10 6 4 5 5 7 8 7 8 7 6 5 6 6 7 7 7 7 6 6 7 7 7 8 8 9 11 13 14 17 19 18 19 19 20 20 21 23 24 24 25 26 26 27 26 24 23 21 17 10 3 4 6 8 10 11 11 11 11 13 12 11 11 14
3 6 3 2 4 2 4 5 5 3 3 1 3 3 2 2 6 6 5 6 6 5 6 5 7 8 6 5 7 8 7 6 6 7 7 6 5 5 6 6 6 5 6 6 7 8 9 11 13 15 16 17 17 17 19 20 19 19 20 22 24 24 25 26 26 27 27 25 24 23 20 13 6 1 3 6 8 8 8 8 9 10 11 11 12 14
4 5 3 2 4 3 2 5 4 3 4 2 3 2 3 6 9 10 9 7 7 8 10 10 9 8 7 7 7 8 8 8 9 9 9 7 5 5 6 6 6 5 5 5 6 8 10 12 15 16 17 17 17 19 20 20 20 20 22 24 25 25 26 26 26 27 27 26 25 24 22 17 12 8 6 7 9 10 9 9 10 11 12 13 13 14
6 5 3 3 3 3 2 4 3 4 4 2 2 2 3 4 5 7 8 7 6 5 9 10 8 8 10 9 7 8 8 9 10 9 8 7 7 5 5 5 5 5 4 5 6 8 11 13 15 16 16 17 19 21 21 19 19 21 23 25 26 26 26 27 27 27 27 26 25 24 22 20 17 13 11 10 11 12 12 12 14 14 14 14 14 15
6 5 3 3 2 2 3 3 2 2 3 1 1 1 0 1 1 1 3 3 4 4 5 9 9 9 9 9 8 7 6 7 8 6 6 7 6 6 6 5 5 5 6 7 8 10 12 14 17 18 18 19 21 22 20 20 20 23 25 26 26 26 26 27 27 27 26 25 24 23 22 21 20 18 15 13 13 14 15 15 17 17 17 18 18 18
5 4 4 3 1 2 4 3 2 1 2 2 2 2 1 2 4 2 2 2 2 4 4 7 10 10 9 9 8 6 3 4 4 2 3 5 5 5 6 7 7 8 9 10 12 13 15 16 19 21 21 21 22 21 20 21 22 25 26 26 25 25 25 26 27 26 25 24 23 21 21 21 21 20 17 16 15 17 17 18 20 20 19 21 21 22
8 4 4 5 2 2 4 3 2 3 2 2 3 2 1 1 4 2 2 1 3 6 6 7 10 9 8 8 7 4 2 2 3 2 1 2 4 4 5 6 8 10 11 12 13 14 15 16 20 23 23 23 23 21 20 22 24 26 26 25 25 25 25 25 24 24 23 23 22 20 19 20 21 20 19 17 16 18 19 21 23 24 24 25 24 25
7 5 4 5 3 3 4 2 1 2 1 1 2 2 2 2 2 2 1 3 5 9 8 8 10 9 8 8 5 2 1 1 3 4 3 3 4 5 6 6 8 9 11 12 13 14 15 18 21 23 24 23 22 20 21 22 25 26 24 24 25 26 25 23 22 22 22 23 23 21 19 19 20 20 19 18 18 19 20 22 24 26 28 28 26 25
4 4 3 4 4 3 4 2 0 2 3 1 1 3 3 1 1 2 2 3 6 9 8 8 9 9 7 6 3 1 0 1 4 6 4 4 5 6 8 8 9 10 12 13 14 15 18 20 21 21 21 21 21 21 22 24 26 25 23 24 25 24 22 21 21 22 22 23 23 23 21 20 20 19 19 18 18 18 19 21 22 23 26 27 24 23
1 2 2 2 3 3 3 3 1 2 2 1 2 3 1 0 1 1 1 1 6 9 8 7 8 7 6 5 4 4 4 6 8 7 5 5 5 6 7 9 10 12 12 13 15 16 18 19 21 21 21 21 21 21 22 24 26 24 23 24 24 21 19 19 20 21 22 23 24 24 23 22 21 20 19 17 17 18 18 18 19 20 22 24 24 24
2 2 2 1 2 2 2 3 1 2 1 1 2 1 0 0 1 2 2 3 5 7 8 7 6 6 7 7 7 7 7 7 7 6 5 5 5 6 7 8 10 12 13 14 15 15 16 18 20 21 21 21 22 21 22 24 25 23 24 24 21 18 18 19 20 21 22 23 24 24 24 23 23 22 21 20 19 20 19 18 18 19 19 21 23 24
1 1 2 2 2 2 2 2 2 2 2 1 1 1 1 1 0 2 3 4 4 5 6 6 5 6 9 10 9 8 8 7 7 6 6 5 5 7 8 9 11 12 14 14 15 15 16 17 19 21 22 21 22 22 22 23 23 23 24 23 20 18 19 20 21 23 23 24 24 23 23 23 23 24 23 22 21 22 21 20 19 19 19 20 22 23
0 1 3 2 2 2 3 2 2 2 1 0 1 2 3 4 4 4 4 5 4 3 4 6 7 8 9 11 10 8 7 7 7 6 6 5 6 8 9 10 11 13 14 15 14 14 16 17 19 22 23 22 22 22 22 22 22 23 23 22 21 21 21 21 23 25 25 25 25 24 23 23 23 24 24 23 23 24 23 22 22 22 22 22 23 24
1 1 2 3 3 4 3 3 1 2 4 4 5 4 5 5 5 5 6 6 5 4 5 7 9 9 9 10 10 8 7 7 7 7 6 6 7 9 11 12 13 14 16 16 15 15 16 19 20 22 22 22 22 22 22 22 22 22 22 21 22 23 23 23 24 25 26 26 26 25 25 25 25 24 23 23 24 24 25 25 25 25 25 24 24 24
1 0 3 3 3 3 2 3 3 5 6 6 6 6 7 7 6 5 6 6 6 7 8 8 10 10 9 9 10 9 8 8 8 7 5 6 7 9 10 11 12 13 15 15 15 16 17 19 19 20 20 20 20 19 18 18 19 19 19 20 21 22 24 25 25 25 25 25 25 25 25 26 26 25 25 24 24 24 24 24 24 25 25 24 23 22
1 1 2 3 3 2 3 4 6 7 7 5 5 5 5 7 7 6 7 8 9 10 11 11 11 10 9 9 9 10 9 8 8 7 5 5 6 7 8 9 10 10 11 12 13 15 17 18 18 19 19 19 18 17 15 15 14 13 15 17 18 19 22 24 25 24 24 23 23 24 24 24 24 24 25 24 23 23 23 23 23 23 23 21 20 19
1 2 2 3 5 5 5 6 7 8 7 6 6 6 5 7 8 9 9 10 11 11 12 12 12 11 11 11 10 10 9 8 8 8 6 5 5 6 5 5 5 6 8 10 12 14 16 17 17 18 18 18 17 16 15 14 12 10 10 12 13 14 18 21 22 23 23 23 23 24 24 24 23 23 24 24 24 24 24 22 22 22 22 20 18 17
2 2 3 4 5 3 3 5 5 5 4 4 5 7 7 8 9 10 10 10 10 10 10 11 13 13 13 13 13 11 9 7 8 8 6 5 4 2 1 1 1 4 7 9 11 13 15 15 16 17 17 17 16 16 15 14 12 9 8 10 11 12 15 17 19 20 21 21 22 22 22 23 23 23 23 24 24 24 24 23 22 22 22 20 19 17
2 4 4 4 3 2 5 6 4 4 5 6 7 8 7 7 9 11 10 9 9 10 11 11 12 11 10 11 14 14 10 8 9 8 5 3 1 1 1 0 2 5 8 10 11 12 12 14 15 16 17 16 16 15 15 14 13 11 9 9 9 11 13 15 16 18 18 19 19 19 19 20 20 20 20 21 21 21 21 21 21 20 20 19 17 17
Wind_Direction
135 131 178 182 182 189 195 179 159 162 140 129 113 102 130 171 276 260 254 272 191 152 256 226 199 185 207 227 227 213 153 167 185 171 187 201 205 205 185 217 236 241 252 59 70 92 129 163 190 188 180 177 182 193 197 198 204 211 215 217 216 216 216 216 221 231 232 221 217 223 225 230 239 243 246 249 251 253 258 260 260 258 254 250 241 232
118 158 208 201 187 187 186 166 143 136 112 101 112 86 32 198 253 258 237 301 271 158 262 230 167 161 212 249 284 181 159 196 199 189 199 201 201 196 188 216 232 244 12 58 75 104 126 142 152 149 150 163 173 180 189 196 203 212 221 222 219 218 220 221 229 238 239 233 231 244 247 242 242 247 249 250 252 253 254 260 263 258 256 257 248 237
126 193 226 209 172 127 101 124 125 125 107 83 118 114 319 243 275 286 274 339 11 138 258 226 119 128 259 304 360 45 175 253 258 201 211 207 207 209 205 224 244 314 38 59 90 106 114 117 118 118 118 137 151 155 179 192 200 214 227 225 220 220 222 227 234 233 232 238 239 243 253 255 254 257 257 254 253 249 243 251 261 257 252 254 250 241
155 232 222 178 139 110 86 104 108 101 94 86 123 142 244 264 320 291 284 332 10 108 212 137 97 36 337 356 28 20 354 325 349 31 65 147 221 249 270 314 7 39 59 85 98 84 92 96 105 113 114 126 134 135 165 188 199 216 227 226 223 226 231 233 233 225 225 232 231 233 248 265 271 270 267 261 253 244 236 240 251 253 247 246 246 243
189 229 172 136 143 132 114 120 120 118 123 334 158 152 196 235 213 227 279 330 350 34 103 109 72 13 353 5 7 352 358 9 5 30 42 12 343 358 12 37 59 79 96 112 99 74 76 86 98 108 116 124 124 125 142 177 206 225 231 230 229 231 232 235 236 234 235 230 215 213 239 264 272 272 268 261 252 244 235 233 240 245 245 245 246 246
212 222 132 128 161 141 121 145 161 150 153 274 228 184 192 202 213 249 317 6 27 9 16 93 79 353 323 359 11 346 4 19 9 23 15 342 344 16 84 106 88 87 102 111 97 81 75 80 84 85 100 109 110 120 134 169 211 234 240 239 238 236 230 232 238 242 244 235 210 189 200 221 232 242 249 253 252 245 238 237 241 245 247 246 242 238
202 181 135 135 158 147 132 163 199 153 128 241 235 195 193 180 183 249 284 61 83 242 294 86 113 161 313 353 360 337 4 23 17 22 9 345 336 324 160 130 108 94 100 102 90 81 72 69 68 60 72 93 104 124 161 214 230 237 242 243 244 241 234 236 244 247 247 239 219 205 211 216 215 217 230 239 242 240 242 246 250 253 248 239 234 229
158 154 145 130 134 143 144 181 208 150 125 225 235 178 172 166 179 215 185 160 209 230 325 22 107 124 13 327 330 324 360 23 21 18 4 352 340 320 309 102 106 105 101 99 94 84 72 70 74 67 75 93 94 116 151 229 249 243 240 240 245 243 240 243 249 252 248 238 228 226 224 220 217 220 228 230 226 226 234 243 252 252 240 230 230 225
155 164 177 157 139 161 181 199 189 151 140 239 218 155 160 160 173 177 137 148 324 91 280 321 45 104 202 276 322 342 24 25 13 9 3 2 357 351 8 48 78 91 93 95 94 88 84 86 87 78 97 103 69 47 56 308 262 248 239 236 239 242 244 248 252 253 248 240 235 233 230 227 224 223 228 225 217 220 224 231 244 242 231 224 222 220
169 186 183 159 158 195 201 193 169 158 184 227 156 107 96 91 89 94 109 124 42 62 227 281 13 104 225 296 343 360 32 18 352 359 6 6 17 27 31 37 50 59 76 88 91 91 93 95 88 65 44 30 321 333 345 320 270 246 237 235 237 239 243 246 251 253 247 243 242 237 233 233 229 221 220 215 204 212 219 224 234 234 228 218 210 210
302 183 162 156 177 190 186 175 168 172 178 150 120 75 57 53 42 48 54 87 76 4 253 265 2 110 163 306 355 8 27 3 337 11 17 15 32 42 40 40 41 42 52 63 66 65 61 58 49 41 41 16 347 339 330 306 276 251 237 234 234 238 243 245 249 254 250 245 245 244 240 238 234 221 211 199 189 202 213 214 221 228 231 225 211 209
341 60 166 219 194 149 130 131 155 169 139 101 108 97 84 29 19 30 354 46 97 247 267 278 344 100 133 246 343 31 49 42 20 31 36 43 51 50 48 44 41 41 41 42 43 41 40 40 36 34 34 25 16 9 351 317 267 255 247 236 232 237 245 248 249 253 254 250 246 247 246 242 239 231 216 202 192 197 204 208 214 221 228 227 218 213
308 229 251 283 230 145 122 108 57 85 110 98 100 110 112 54 33 58 306 60 151 234 277 308 330 79 105 218 346 26 47 40 34 41 40 49 53 50 52 50 47 46 42 42 43 42 41 39 35 32 29 27 25 19 10 355 286 253 248 238 235 242 250 252 253 255 256 254 250 249 248 243 241 239 229 212 201 202 205 211 214 215 222 224 216 212
241 273 282 288 252 175 135 138 138 137 155 146 137 136 136 130 131 176 255 121 210 237 297 326 348 79 239 162 57 31 43 37 42 45 41 47 48 51 58 56 57 53 48 49 46 49 47 39 37 35 30 30 30 27 24 20 0 280 253 242 241 252 259 259 257 258 257 256 253 250 248 243 239 241 237 220 207 207 204 209 213 214 220 220 214 210
157 246 233 183 212 179 158 171 168 151 151 165 160 135 144 159 148 173 198 164 175 189 325 334 19 142 214 124 82 46 32 39 55 45 43 52 47 56 61 54 53 49 47 50 47 51 51 41 41 39 33 31 31 32 31 28 22 351 294 265 254 260 268 269 267 270 274 274 272 264 256 248 240 241 241 228 215 211 202 204 213 217 218 214 210 203
138 225 245 229 170 163 171 187 148 124 122 181 140 102 145 187 139 127 177 164 153 128 21 348 35 245 255 121 97 79 41 46 67 49 41 49 48 57 58 51 51 46 42 41 41 44 42 39 39 38 36 31 28 28 27 26 23 9 344 321 299 288 286 284 284 291 298 298 293 286 280 269 252 244 241 232 222 216 205 204 213 217 215 209 205 198
114 257 274 302 192 188 175 170 157 152 152 125 120 145 204 176 117 115 166 66 93 115 52 331 128 127 304 240 175 143 133 113 93 65 54 59 60 61 57 54 49 42 41 38 39 39 33 33 33 33 35 31 26 24 20 20 19 14 1 345 334 328 323 316 309 307 306 303 294 286 289 286 264 248 243 237 226 217 207 207 214 216 212 207 202 196
144 254 288 159 193 233 165 127 102 120 140 123 150 181 177 106 91 106 125 27 54 116 250 317 154 156 163 210 184 172 173 153 128 104 86 74 70 68 60 56 46 39 41 38 38 36 31 32 31 31 33 29 25 21 17 17 16 18 16 8 359 350 344 338 328 323 317 312 306 298 294 287 270 253 245 240 227 216 210 209 215 215 208 205 202 198
132 171 292 267 175 286 66 104 72 16 71 124 154 151 119 124 134 93 125 139 114 127 172 345 327 224 192 208 192 181 171 149 139 128 106 80 72 69 59 54 45 39 39 35 36 30 25 29 26 28 30 26 24 22 19 19 18 19 21 21 21 17 10 0 347 345 340 328 321 313 302 290 272 252 240 236 224 211 210 211 216 216 208 203 200 200
112 108 276 278 226 20 36 87 140 143 21 43 98 108 77 129 155 155 142 148 144 145 150 104 312 261 221 218 191 173 160 146 143 133 111 82 65 62 56 53 45 40 38 31 30 23 17 19 18 25 28 24 23 23 22 23 22 22 23 22 22 21 18 14 8 7 4 358 352 334 316 302 282 253 234 229 219 211 214 216 220 218 210 201 199 201
67 100 192 292 330 55 112 188 180 171 124 69 94 128 91 77 115 137 94 82 129 140 146 138 206 258 243 221 178 158 148 140 133 118 96 74 66 61 53 49 40 33 34 28 27 24 17 15 15 21 26 24 23 22 21 23 24 26 26 24 20 16 13 10 11 15 14 12 11 2 343 326 305 272 242 226 218 218 221 222 225 222 213 201 198 202
113 137 160 304 1 58 239 260 208 180 164 138 149 171 157 122 116 118 100 328 98 120 159 154 184 259 258 230 164 150 145 136 122 108 85 66 65 63 52 46 38 30 28 24 23 23 21 17 13 15 21 23 22 20 18 19 21 24 26 23 19 15 10 5 5 11 15 8 360 359 360 353 327 286 254 229 222 227 225 224 223 220 215 205 201 203
151 112 107 197 335 181 260 292 243 155 127 103 119 161 140 124 123 125 165 218 90 84 144 123 122 265 267 248 167 148 139 119 108 110 100 78 62 62 54 41 37 32 26 23 22 20 23 22 15 12 15 20 20 18 17 17 17 19 20 20 18 13 9 6 3 5 8 4 352 348 355 359 333 282 256 226 218 223 222 223 219 217 217 211 206 204
127 96 94 337 307 311 308 340 12 55 82 79 47 48 102 128 135 140 165 168 127 145 150 87 76 264 272 238 160 137 118 95 88 96 103 93 66 58 54 39 33 30 22 21 19 15 21 25 20 15 14 16 17 16 16 16 16 17 16 14 12 9 6 5 3 1 360 358 356 354 349 338 312 280 252 221 212 213 214 210 203 206 214 212 210 206
165 145 103 90 24 354 355 0 357 6 48 84 54 10 61 112 105 115 125 82 104 180 158 118 169 254 236 138 131 123 110 99 91 82 82 86 71 57 53 42 34 29 21 16 13 11 19 23 18 15 14 15 15 15 16 17 16 15 14 10 7 5 5 3 0 356 350 350 352 349 333 310 289 258 230 220 218 217 216 206 197 199 206 207 206 202
130 141 114 121 138 153 162 261 241 164 53 64 74 25 22 99 114 131 122 87 132 189 145 131 173 224 157 130 127 123 114 107 101 87 75 73 71 61 53 47 37 31 25 17 11 9 14 18 15 14 15 14 13 13 15 16 15 14 13 11 8 5 3 2 359 355 348 344 344 340 324 302 280 247 226 223 220 216 214 205 196 197 202 204 200 192
103 75 87 118 136 171 187 215 233 153 105 87 65 26 7 34 105 107 108 136 168 152 137 193 166 152 152 145 141 138 124 118 114 100 87 76 70 63 57 53 44 39 33 23 16 9 9 13 13 13 14 15 13 13 15 15 14 13 11 10 9 7 4 3 3 2 358 345 334 330 324 307 278 250 236 229 221 217 213 201 193 194 198 200 196 188
99 58 46 88 77 78 175 184 57 77 91 93 78 31 2 4 78 101 130 195 160 128 167 243 170 150 157 157 150 145 131 125 122 109 97 82 72 67 59 51 42 37 32 24 19 10 6 9 10 10 12 15 16 15 15 15 13 12 11 9 9 9 7 6 8 9 5 350 336 332 327 313 272 240 233 226 213 209 206 198 191 190 192 193 192 190
104 77 30 94 65 34 28 47 82 89 86 67 63 57 35 31 72 114 158 209 161 144 187 191 165 153 149 144 142 134 122 123 121 110 99 85 71 63 58 49 38 31 26 23 17 8 3 3 3 7 12 15 16 13 12 12 11 10 11 10 10 10 10 12 14 13 10 1 345 335 325 305 264 230 220 213 205 200 197 195 189 186 188 186 187 192
102 79 107 107 78 38 17 12 65 97 99 60 45 48 60 67 73 89 124 156 131 142 156 145 136 112 88 117 121 111 105 106 105 99 93 84 70 61 57 46 32 29 26 20 13 4 359 358 1 9 14 13 11 9 10 10 9 9 10 10 11 11 11 16 20 17 15 11 359 341 320 288 251 228 218 209 202 195 191 191 186 184 185 182 184 193
83 122 203 96 74 24 7 22 46 83 100 76 38 22 45 69 67 56 73 103 91 89 112 122 120 91 48 101 100 97 101 97 89 85 84 78 67 63 61 46 30 30 25 15 8 4 356 357 6 11 13 12 10 10 10 8 9 11 12 11 11 12 14 19 24 23 19 16 10 359 337 298 245 223 218 207 196 186 181 184 182 177 177 180 185 192
71 117 116 68 79 343 340 28 35 62 86 76 40 11 16 48 68 52 35 29 114 122 118 120 131 143 147 119 97 88 91 90 84 79 77 72 63 62 64 52 34 26 22 12 10 10 1 1 7 6 8 12 14 14 12 11 13 14 14 13 14 17 21 23 25 26 24 23 20 15 4 337 271 225 208 193 189 185 175 172 171 167 169 178 185 187
90 123 125 84 96 284 305 359 8 43 78 64 6 347 349 34 73 66 25 358 17 127 133 146 153 132 126 119 104 90 85 84 79 74 74 73 70 65 61 55 37 23 19 12 13 16 7 5 7 5 10 18 19 18 18 20 21 19 18 21 21 23 25 26 27 29 28 27 25 24 22 13 330 236 195 177 185 187 173 162 159 159 166 179 185 182
86 111 126 105 107 185 287 346 26 72 124 235 299 305 303 68 81 78 55 26 33 81 105 103 104 105 101 105 108 103 95 86 75 67 61 62 68 65 58 51 34 22 17 9 14 19 10 10 14 13 17 22 22 25 30 32 32 30 32 33 31 29 27 27 29 30 31 30 29 29 32 33 32 42 152 155 166 171 161 152 148 148 157 167 173 174
96 94 103 75 101 143 316 19 70 169 223 273 325 5 90 100 97 88 69 45 56 90 101 97 99 103 95 90 97 102 101 92 78 64 53 51 53 57 59 48 31 27 21 9 13 17 14 19 22 19 18 22 26 33 37 37 36 39 41 41 38 33 30 30 30 30 31 33 33 34 38 41 47 57 76 111 134 140 139 136 133 136 146 150 151 156
118 112 106 69 83 125 75 59 120 229 271 340 7 7 63 86 98 90 67 35 32 82 111 110 104 104 104 102 100 102 103 92 75 58 47 48 45 45 56 51 31 20 16 20 24 23 25 31 33 29 25 26 34 40 39 37 39 43 45 45 41 35 32 33 32 29 29 32 34 38 41 44 51 60 72 91 113 123 127 126 123 127 135 135 132 135
116 120 105 66 64 123 114 103 127 269 280 152 112 300 101 149 238 133 93 54 29 52 112 122 117 115 115 113 113 118 113 90 71 44 30 42 45 46 52 50 40 24 21 32 39 41 45 48 48 46 41 39 42 44 40 39 43 46 46 46 43 38 35 34 31 30 30 31 36 42 45 49 54 60 69 82 94 104 112 119 121 122 125 124 122 119
82 113 132 117 87 97 104 107 128 196 231 184 166 224 181 183 261 281 82 103 94 92 119 132 128 128 129 126 133 145 130 82 77 46 20 36 46 53 53 50 49 44 36 36 40 45 49 51 53 54 50 47 49 48 44 44 47 48 46 43 40 38 36 33 31 31 31 33 38 45 49 54 58 62 68 75 82 94 104 111 117 121 123 122 119 111
56 60 97 101 93 111 113 120 166 195 230 186 174 227 279 307 289 322 63 145 159 135 135 134 128 131 140 143 147 156 143 112 143 162 87 46 43 51 59 54 50 50 47 45 44 46 47 51 56 56 51 47 48 48 49 50 51 49 45 40 39 36 34 33 32 32 34 38 43 49 52 55 60 65 71 74 79 90 101 106 111 116 119 116 110 103
40 24 53 91 107 115 111 119 189 212 262 224 185 262 311 329 339 41 116 219 171 146 148 144 138 141 148 148 144 136 169 189 164 152 132 97 72 60 59 54 47 46 47 49 50 51 53 54 55 53 48 44 45 49 51 53 52 49 43 41 41 36 32 34 37 39 42 45 49 51 53 56 61 66 72 79 85 91 98 104 108 112 114 113 109 103
22 17 59 112 111 93 105 118 257 272 265 243 252 307 311 317 43 101 205 216 152 143 147 144 144 146 145 143 137 110 41 91 115 123 121 107 89 67 59 62 61 56 52 53 55 56 57 57 55 53 50 49 51 52 52 53 52 49 44 44 43 38 36 41 45 47 48 51 52 53 54 58 63 69 74 83 92 95 96 101 105 105 107 111 113 108
80 52 44 80 99 99 116 112 55 274 261 313 319 301 291 196 154 159 219 123 130 138 138 134 137 133 119 111 104 107 106 95 99 106 101 95 91 75 64 64 62 56 51 52 54 53 54 54 53 52 51 51 54 56 55 56 54 51 48 47 44 41 44 50 52 52 52 53 55 55 56 58 63 70 76 82 92 94 91 94 98 98 100 106 110 109
142 111 55 69 124 100 70 76 87 229 213 25 335 294 148 163 202 149 100 78 107 126 126 123 123 117 111 108 105 108 107 98 98 99 91 84 81 74 65 56 53 49 43 42 43 45 51 52 51 51 51 51 55 56 56 58 57 53 51 50 46 46 50 54 58 59 58 58 59 59 59 61 65 70 75 77 83 86 85 84 86 86 88 94 100 103
44 113 147 188 176 122 123 150 194 225 234 284 324 88 73 24 52 120 110 99 98 111 118 115 111 114 119 119 116 112 107 101 101 99 91 79 69 64 56 47 49 50 47 44 42 47 54 56 54 54 54 55 56 55 54 58 58 56 54 52 51 53 55 57 60 63 63 63 64 63 64 66 69 73 76 78 80 80 80 78 77 77 79 83 88 91
348 152 151 147 134 132 150 196 230 220 224 357 66 75 63 65 70 78 94 100 96 98 114 116 115 118 122 121 117 112 109 107 103 97 91 81 64 57 52 47 50 56 57 52 47 51 58 60 58 57 56 56 58 56 54 55 59 58 56 55 56 59 60 60 61 64 66 67 68 69 69 69 71 73 77 80 81 80 80 80 80 79 78 79 81 82
190 127 94 102 138 137 87 31 36 119 99 73 69 68 63 67 72 79 88 91 88 88 105 119 123 125 127 124 117 110 109 109 102 93 88 80 68 60 57 52 48 51 56 54 50 55 61 62 60 58 55 55 58 58 55 54 59 62 61 59 59 60 62 63 63 64 67 69 71 72 73 73 73 74 76 78 79 79 79 80 80 79 77 75 75 76
262 164 78 92 137 145 73 39 65 94 97 90 82 77 73 71 69 77 91 100 102 102 105 113 118 120 120 118 115 113 113 109 102 93 86 86 82 73 68 63 54 49 49 48 51 61 66 63 58 55 52 51 53 55 54 54 60 67 67 63 61 61 62 64 64 64 66 69 72 73 74 75 75 75 76 76 77 77 76 76 76 75 72 69 68 67
228 165 106 89 96 96 97 108 98 83 77 77 80 84 86 85 84 86 94 102 104 104 106 109 111 114 113 110 111 112 110 107 108 109 106 102 99 93 86 83 76 64 54 53 61 71 72 66 61 58 54 52 51 52 53 53 58 67 72 70 64 60 61 65 67 67 68 69 71 73 74 75 75 76 76 75 74 72 70 69 70 70 68 65 62 60
149 112 117 112 104 95 102 122 117 92 70 65 79 92 99 101 102 100 99 103 105 105 106 106 106 109 113 115 116 115 113 115 121 125 126 124 121 117 109 98 86 70 64 70 78 81 78 73 69 65 60 57 56 55 55 55 56 61 74 79 72 66 67 70 71 72 72 71 71 73 74 75 77 78 79 78 77 74 71 69 70 72 72 70 67 66
82 111 136 130 129 143 157 156 145 115 95 97 102 103 105 110 111 108 103 103 106 109 112 110 106 106 110 115 119 119 119 126 135 137 136 134 130 121 69 358 68 79 85 93 95 91 85 80 76 71 65 61 59 58 56 55 55 56 70 85 84 77 77 77 76 77 78 76 75 75 75 76 78 79 80 81 81 81 79 76 74 74 74 73 70 69
168 171 164 137 127 144 141 137 126 99 105 120 116 109 112 116 112 109 107 105 107 113 118 118 116 114 113 118 125 129 131 135 140 139 132 124 116 56 31 83 120 109 105 105 103 98 92 84 77 71 65 60 57 56 56 55 52 51 63 83 87 82 79 78 79 81 82 80 80 79 77 76 77 77 78 80 81 82 83 81 78 74 73 72 70 68
Height
760 767 772 772 772 770 768 768 769 772 774 776 778 780 783 785 780 774 769 764 763 767 769 766 766 771 769 765 768 770 770 771 772 774 776 776 776 775 777 777 774 773 772 776 780 781 782 783 785 785 785 786 787 787 788 789 790 791 792 794 795 797 799 800 801 802 802 802 803 804 806 806 807 808 808 809 810 811 812 814 815 816 816 817 818 818
760 769 772 767 766 764 766 769 769 772 774 776 779 780 782 785 778 769 767 767 764 766 770 769 770 775 770 766 770 773 772 773 772 774 776 776 776 776 776 776 773 772 776 780 781 781 782 784 786 786 787 787 788 789 789 790 791 792 793 795 796 797 798 800 800 801 803 804 805 806 808 807 807 808 808 809 809 811 813 815 815 815 816 817 817 818
766 771 768 764 766 767 770 771 770 772 774 776 779 780 780 782 778 769 766 769 768 765 767 770 772 775 775 774 776 776 775 774 772 773 775 777 778 777 776 775 775 777 781 783 782 782 784 786 787 787 788 789 790 791 792 792 794 794 796 797 798 799 800 801 801 801 802 802 803 805 807 807 807 808 808 809 810 811 812 814 814 814 815 816 816 817
772 768 762 766 769 768 771 772 770 773 777 778 779 780 780 781 779 772 766 767 769 769 770 770 769 775 782 780 775 777 779 776 774 774 774 777 779 779 779 779 780 782 784 784 784 785 786 787 787 787 788 789 790 792 793 793 795 795 796 797 798 800 801 802 801 800 799 797 797 800 803 805 807 808 808 809 810 811 812 813 813 813 814 814 814 815
766 761 758 766 767 764 769 773 772 772 778 781 779 777 777 776 776 774 770 767 767 771 772 768 770 781 789 785 780 781 781 778 778 777 775 777 778 778 780 780 782 783 783 785 785 786 788 788 788 788 788 789 791 792 793 794 795 796 796 797 798 799 799 800 799 798 797 795 795 798 801 804 805 807 808 809 810 811 812 812 812 812 812 812 812 813
760 759 759 764 765 764 768 772 771 770 776 780 776 773 771 770 772 773 773 773 770 773 773 769 778 795 796 789 788 788 786 785 786 784 783 782 779 778 779 780 782 783 783 784 786 787 789 789 790 790 790 791 792 792 793 795 795 796 797 797 798 799 798 798 797 796 795 795 797 797 797 799 800 802 805 807 809 811 812 812 812 812 810 810 810 810
757 757 758 761 763 765 768 771 771 770 776 779 772 766 766 769 773 773 773 775 774 774 776 773 781 799 802 793 793 795 794 793 792 790 790 788 784 780 779 780 782 783 784 785 787 788 790 790 792 792 792 792 793 793 793 794 795 795 796 796 797 798 797 796 795 794 792 795 798 795 790 790 792 794 796 800 804 808 811 811 810 810 809 809 809 808
755 758 759 760 763 767 770 771 770 769 775 775 766 763 766 769 771 772 771 773 773 772 774 773 773 788 802 799 798 799 796 797 796 794 793 790 788 784 781 781 783 784 785 787 788 790 791 792 793 794 794 793 793 793 793 793 794 794 795 795 796 796 796 794 792 791 791 794 795 792 787 786 788 790 792 797 803 806 809 810 810 809 808 808 808 808
752 757 758 758 763 768 767 764 764 767 769 766 763 766 767 766 768 770 770 771 776 776 773 773 771 781 800 805 802 801 798 799 800 797 795 793 790 788 786 785 785 785 786 788 790 791 793 794 794 795 794 794 794 794 793 793 793 793 794 795 795 794 793 792 790 789 791 792 791 789 788 786 785 787 791 797 802 804 805 807 807 807 807 808 808 808
749 749 750 754 760 762 759 757 760 763 763 760 763 768 767 769 773 775 774 768 774 780 775 776 777 780 799 810 807 805 803 804 802 797 796 795 792 791 790 790 789 788 788 789 790 791 793 794 795 795 794 793 793 794 794 794 793 793 793 794 793 793 790 787 786 787 789 790 789 787 787 785 784 785 789 795 800 801 802 804 804 804 805 806 807 807
745 745 746 749 751 751 751 755 758 758 758 758 761 765 767 772 774 776 779 771 776 786 779 782 784 778 792 810 810 806 804 803 801 798 797 796 794 793 792 792 792 792 791 791 792 792 794 795 795 795 794 793 793 794 795 794 794 793 792 792 791 790 787 784 785 786 788 789 788 787 786 786 787 787 788 792 797 799 800 802 803 803 803 804 805 804
748 748 748 743 742 744 748 755 759 757 757 759 760 764 771 777 777 779 782 778 787 793 784 790 791 778 789 809 809 804 802 801 800 800 799 797 797 795 794 795 795 795 795 795 795 796 796 796 796 795 794 795 795 795 795 794 793 792 791 791 790 787 784 783 785 786 787 787 786 785 785 787 789 790 789 790 793 796 797 799 801 801 802 802 803 802
752 749 746 741 739 740 745 755 763 762 760 760 762 767 777 788 789 790 793 791 793 791 790 798 792 784 798 810 807 804 802 800 800 800 800 799 799 797 797 797 798 798 798 798 798 798 798 797 796 796 795 796 796 795 794 793 792 791 791 790 788 785 783 784 785 785 785 786 784 784 784 786 789 791 791 789 790 792 794 796 798 799 799 799 800 801
755 750 745 743 741 736 740 752 761 765 764 763 765 768 778 791 798 802 809 809 799 791 795 799 790 793 809 809 805 806 803 800 800 800 800 801 801 799 799 799 799 800 800 800 800 798 798 798 797 797 796 796 796 795 794 793 792 791 791 790 788 785 784 785 786 786 785 784 784 784 784 786 788 790 791 790 788 789 791 793 795 795 795 796 798 799
758 756 745 741 740 734 737 742 745 753 761 761 760 762 771 779 785 795 802 798 794 795 797 796 793 802 810 807 805 805 802 800 800 800 801 801 801 800 799 799 800 801 800 799 799 798 798 798 797 798 797 796 796 796 795 793 793 792 792 791 789 787 787 787 788 789 788 786 786 787 786 786 788 789 791 790 788 787 788 789 791 792 792 793 795 797
757 753 735 733 735 732 733 734 734 744 759 763 759 762 769 765 767 787 798 793 792 797 801 803 807 811 809 806 805 804 803 803 801 802 803 803 802 800 800 801 801 801 801 800 799 799 798 798 798 798 798 798 797 796 795 794 794 794 793 792 791 790 789 790 790 790 789 788 788 788 788 788 788 788 790 790 788 787 786 787 789 790 791 792 794 796
757 748 733 733 733 729 729 730 731 737 749 762 763 763 766 759 759 780 800 803 797 796 809 818 816 813 812 808 805 805 806 805 804 805 806 806 804 803 802 803 803 803 802 802 801 801 800 800 800 799 799 799 798 797 796 795 794 794 793 793 792 791 791 790 790 789 787 787 787 787 788 788 788 787 788 787 786 785 785 786 788 789 791 792 794 796
749 743 735 733 731 729 728 728 731 732 738 754 760 756 760 762 762 769 786 801 798 799 816 822 814 812 815 810 805 806 807 807 807 807 808 808 805 805 805 805 806 806 805 805 804 803 804 803 803 803 802 801 800 798 797 796 795 794 794 793 792 792 791 790 789 787 786 785 785 785 786 787 787 786 785 784 784 784 785 786 787 789 790 791 793 795
744 742 737 734 732 731 728 729 738 739 735 740 744 745 754 763 768 772 782 793 796 808 823 821 815 815 813 808 805 805 806 807 807 808 809 808 807 807 808 808 809 809 808 808 807 807 807 806 805 804 803 802 800 799 798 797 796 795 794 793 792 791 790 789 788 786 785 785 784 784 785 786 786 784 784 783 782 782 784 785 787 788 790 791 793 795
741 745 742 735 733 733 730 734 743 746 741 739 741 747 751 756 763 770 778 781 786 808 825 823 820 815 806 804 803 803 805 806 806 808 808 808 808 809 810 810 811 810 810 810 809 808 807 806 806 805 804 804 802 801 800 799 797 796 794 793 792 791 790 789 787 785 784 784 783 783 783 784 785 785 783 781 781 782 784 786 787 789 790 791 793 795
739 746 745 737 734 736 738 740 742 743 743 745 749 753 756 760 764 767 776 782 780 795 816 823 822 812 800 799 800 801 804 804 804 806 807 808 810 811 811 812 812 811 811 810 809 809 808 807 807 807 807 806 804 803 802 800 799 796 795 794 792 792 790 788 786 784 783 782 780 780 779 780 783 785 784 782 781 782 784 786 788 789 791 792 793 795
737 744 746 741 738 741 744 744 743 740 738 741 744 748 754 759 763 768 782 789 781 785 802 809 808 805 800 798 798 800 802 802 803 806 808 811 812 812 813 813 813 813 812 812 811 810 810 810 810 809 809 808 806 805 803 801 800 797 796 795 793 792 790 787 785 783 782 781 780 779 777 776 778 781 783 782 782 784 785 787 789 790 791 792 793 795
734 740 744 746 745 746 746 745 745 743 739 740 744 751 754 752 754 761 774 783 784 791 799 795 794 800 800 798 797 799 800 801 804 806 809 813 813 814 815 814 815 815 814 815 814 813 813 812 812 812 810 809 808 806 804 802 800 798 796 795 793 792 790 788 785 783 781 781 780 779 778 777 778 779 780 781 782 784 785 787 789 791 792 793 794 795
733 740 745 749 748 744 741 740 742 742 741 744 752 760 759 753 752 755 762 770 779 790 792 786 795 804 799 797 798 798 801 803 807 809 811 813 814 815 816 817 817 818 818 817 816 816 815 814 814 814 812 810 808 807 805 803 801 799 798 796 794 792 790 788 786 783 781 780 779 778 778 778 780 781 781 781 781 783 784 785 787 789 790 792 793 795
733 743 747 753 758 756 752 750 746 743 747 753 761 766 764 760 758 758 764 766 773 790 788 778 796 808 799 797 800 799 803 807 810 812 813 814 817 818 819 819 820 821 821 820 819 818 817 816 816 815 813 812 809 808 806 804 802 801 799 797 795 792 791 789 786 784 782 781 780 780 779 779 780 780 780 780 781 783 783 783 785 786 788 790 792 793
736 749 747 748 759 765 764 761 755 752 756 762 765 766 766 763 754 754 764 763 768 792 791 776 793 808 800 799 803 803 807 810 813 816 816 817 819 820 821 822 823 824 824 823 822 820 819 819 819 817 815 813 810 809 807 805 803 802 800 799 796 794 792 789 787 785 783 783 782 780 780 779 780 779 779 779 780 782 782 783 784 786 788 790 791 793
742 759 757 749 752 756 756 758 760 759 757 761 765 767 770 769 759 755 762 762 767 788 790 781 792 801 799 801 804 805 808 811 815 817 818 820 822 823 824 825 825 826 826 825 825 823 822 821 820 819 816 814 812 810 808 806 805 803 802 800 797 795 793 791 788 786 784 784 782 781 780 779 779 779 779 779 780 781 781 782 783 785 787 790 791 793
741 757 764 764 765 765 763 765 766 764 763 767 771 771 772 772 763 754 757 764 770 777 783 788 791 792 796 801 803 806 809 812 815 818 819 822 824 825 826 826 827 828 827 827 826 825 824 823 821 820 818 816 813 811 809 807 806 805 803 801 799 796 794 792 790 788 786 784 782 781 780 779 780 779 779 779 780 780 781 782 783 785 787 790 792 794
741 756 764 766 771 774 772 771 768 769 776 783 782 779 778 775 766 757 764 778 775 764 770 784 789 790 795 800 803 808 811 813 816 818 821 824 825 827 828 828 830 830 829 829 828 827 826 825 824 822 820 817 815 812 811 809 807 806 804 802 800 798 796 794 792 790 788 786 783 782 781 781 781 780 780 780 779 780 781 782 784 785 788 790 792 796
743 759 766 765 768 774 775 774 770 769 776 784 787 786 784 781 777 773 776 785 780 769 770 781 790 798 803 805 808 813 814 816 819 821 823 825 827 828 830 832 833 832 831 831 830 829 828 827 826 824 821 819 817 815 813 811 809 807 805 804 802 800 798 796 793 792 790 788 786 784 782 782 782 781 780 780 780 780 781 782 784 786 788 789 793 797
741 757 766 763 766 774 778 777 775 773 775 781 787 789 784 780 782 783 783 784 782 781 785 788 794 805 813 814 815 816 818 820 823 825 827 828 829 830 832 834 835 834 833 833 832 831 830 828 827 825 824 822 820 818 816 814 812 809 807 805 803 801 800 798 796 794 791 789 787 785 784 783 782 782 782 781 782 782 782 783 784 785 787 790 793 796
740 757 767 761 762 775 781 780 780 777 774 778 787 792 788 782 784 787 789 788 784 786 793 795 796 805 814 817 818 820 822 824 827 830 830 830 831 833 834 836 836 836 835 835 833 833 831 830 829 828 827 825 823 821 819 816 814 812 809 808 805 804 802 800 798 796 793 791 789 786 785 783 783 783 783 783 784 784 784 785 785 786 788 790 794 796
745 754 761 758 763 778 783 780 778 772 767 775 789 797 795 790 790 792 793 793 788 786 791 794 797 807 816 818 820 824 826 828 831 832 831 833 834 835 836 837 838 838 837 836 835 834 833 833 832 831 829 827 826 824 822 819 817 815 813 810 808 806 804 802 800 798 796 793 791 789 786 785 784 785 785 786 786 785 786 786 786 787 789 791 794 796
751 752 758 762 769 781 785 781 777 773 773 784 797 800 797 794 794 796 800 802 800 798 799 801 806 815 820 820 822 826 830 832 834 833 834 835 836 837 838 839 839 839 838 837 836 835 835 834 833 833 831 829 828 826 823 821 819 817 815 813 811 808 806 804 803 800 798 796 793 791 789 787 787 787 787 788 788 787 787 788 788 788 790 793 795 797
753 754 761 771 776 783 787 782 777 779 788 797 801 799 796 798 800 801 805 809 808 807 809 811 815 820 823 825 828 830 832 834 834 835 837 838 838 839 840 840 841 840 840 839 837 837 836 835 834 834 833 831 830 827 825 823 821 819 816 814 813 811 808 807 805 803 801 799 796 794 793 791 790 789 789 789 789 789 789 789 789 790 792 794 796 798
751 755 764 775 781 783 784 783 783 792 802 804 801 799 798 799 798 796 801 810 812 810 811 815 821 825 827 830 832 833 834 834 834 838 840 840 840 841 841 842 842 842 841 840 839 838 837 836 835 835 834 833 831 829 827 825 823 820 818 816 814 813 811 809 807 806 804 801 799 797 796 795 793 792 791 791 790 790 791 791 791 793 795 796 799 801
750 754 761 772 781 785 787 792 797 802 804 801 801 803 803 803 801 795 799 811 816 814 814 819 824 827 830 832 834 835 834 832 836 842 843 842 842 843 843 843 843 843 842 841 840 839 838 837 836 835 835 833 831 830 829 828 825 822 819 818 817 815 813 811 810 809 807 805 803 801 800 798 797 796 795 794 793 793 793 793 793 795 797 798 801 803
751 752 754 765 782 789 790 797 803 800 796 797 803 807 806 806 808 802 800 809 816 816 817 821 824 828 832 833 834 835 832 829 836 844 845 844 844 843 844 845 844 844 843 842 841 840 838 838 837 835 835 833 832 831 831 829 827 823 821 820 820 818 816 814 813 813 811 809 807 805 804 802 801 799 798 798 797 797 797 797 796 797 799 801 804 805
756 760 759 764 780 786 781 788 797 794 793 799 805 808 807 806 809 804 797 803 814 818 819 822 825 828 832 832 834 836 830 826 834 846 847 845 845 845 845 845 845 844 844 843 842 841 840 839 838 836 835 834 833 833 832 830 828 825 824 823 822 821 819 817 817 816 814 813 811 809 807 805 804 803 802 802 802 801 801 802 801 801 802 804 807 808
758 762 764 767 779 784 781 788 798 796 798 806 807 806 806 807 807 802 793 797 812 817 817 821 825 827 830 832 833 835 831 827 835 845 846 845 846 846 845 846 846 845 844 844 843 842 841 840 838 837 836 836 835 835 834 832 829 827 827 826 825 823 822 821 821 819 818 816 814 812 811 809 807 807 806 806 806 805 805 806 806 806 805 806 809 810
770 772 776 777 782 785 782 787 799 802 804 808 807 806 808 807 803 798 794 800 812 816 816 821 824 825 828 831 832 835 837 836 838 843 845 845 846 846 846 847 846 846 846 845 844 843 842 841 840 839 838 838 838 837 835 833 831 830 830 829 827 826 826 825 824 822 820 818 816 815 814 812 811 810 810 810 810 810 810 810 810 811 809 809 810 811
774 779 784 784 790 796 793 792 798 801 806 810 809 808 808 804 799 799 803 808 813 814 817 821 823 826 829 833 835 838 841 841 842 844 846 846 846 847 847 848 847 847 847 846 845 845 843 842 842 840 840 840 839 838 837 834 832 832 832 831 830 831 830 828 826 824 822 821 819 818 817 816 815 814 814 814 814 814 814 814 814 814 814 813 814 814
781 780 788 799 806 806 799 793 790 791 804 815 811 806 806 804 802 806 811 813 814 815 819 822 825 828 831 835 839 841 842 844 844 845 847 847 847 848 848 848 848 848 848 847 847 846 845 844 843 842 842 842 841 840 839 836 835 835 834 834 834 834 833 831 829 827 825 823 822 822 821 820 819 818 818 818 818 818 818 819 819 818 818 818 817 816
793 788 791 805 810 797 786 789 795 800 812 818 812 808 810 810 810 812 813 814 817 819 821 824 829 831 833 836 841 843 844 846 846 846 848 848 849 849 849 849 849 848 848 849 848 848 847 846 845 844 844 843 842 842 841 839 839 838 836 837 838 837 835 834 832 829 828 826 826 826 825 825 824 822 822 822 822 822 822 823 823 823 823 823 822 821
799 798 793 803 813 807 799 804 812 815 816 815 813 814 816 814 814 815 814 816 821 822 823 827 831 834 835 837 841 843 845 846 847 848 849 849 850 850 850 850 850 849 849 850 850 850 849 848 847 846 845 845 844 843 843 842 841 840 839 840 840 839 837 836 835 833 831 830 830 829 829 828 828 827 826 826 826 826 827 827 827 828 828 828 827 827
804 803 800 805 813 814 811 813 815 814 814 816 816 817 817 816 817 818 818 820 823 824 826 828 831 835 837 838 840 844 846 847 848 849 850 850 851 852 851 852 851 850 850 851 851 851 851 849 849 848 847 847 846 846 845 845 843 843 843 843 843 841 840 839 837 837 836 834 834 833 832 832 831 831 830 830 830 830 831 831 831 831 832 832 832 832
803 800 803 807 808 808 811 816 817 815 817 819 818 818 819 819 820 820 821 823 825 827 829 831 832 835 838 839 841 844 847 848 849 850 852 852 853 854 854 854 853 853 852 853 853 853 852 851 851 850 849 849 849 848 848 847 846 846 846 846 845 844 843 841 840 840 840 839 838 837 836 835 835 834 834 833 834 834 834 834 834 834 835 835 836 836
801 800 804 809 810 811 814 817 818 818 819 820 819 821 822 822 823 824 823 824 827 829 831 833 835 837 839 842 843 845 848 850 851 852 854 854 855 855 855 855 855 855 855 855 855 855 854 853 853 853 852 852 851 851 850 849 849 849 848 848 848 846 845 844 843 843 843 842 841 840 840 839 838 838 837 837 837 837 837 837 837 837 838 839 840 840
800 800 805 809 813 816 817 818 818 818 821 823 822 823 824 824 825 826 826 827 830 831 833 836 838 840 842 843 845 846 849 851 852 853 855 855 855 856 856 856 856 856 856 857 857 857 856 856 855 855 855 854 854 853 852 851 851 851 850 850 849 848 847 847 846 846 846 845 845 844 843 842 842 841 840 840 840 840 840 841 841 840 841 842 843 843
802 804 807 809 811 813 814 815 813 812 818 825 825 825 826 826 826 828 829 830 832 834 835 837 840 842 845 846 847 848 850 852 854 854 855 856 856 856 856 856 857 857 858 858 858 858 858 858 858 857 857 856 856 855 854 853 852 852 852 851 851 850 849 849 849 848 848 848 848 847 847 846 846 845 844 843 843 843 843 844 844 844 844 844 845 846
803 805 805 804 806 808 809 811 813 813 819 825 826 826 827 827 827 829 831 832 835 836 837 838 840 844 847 848 849 850 851 853 854 855 856 857 857 857 857 857 858 859 859 859 860 860 860 860 860 860 859 858 858 857 856 855 854 853 853 853 852 852 852 851 851 850 850 850 850 850 850 850 849 849 848 847 847 846 847 847 847 847 847 847 847 848